Regional Weather Roundup
Issued by NWS Portland, ME

Home | Current Version | Previous Version | Text Only | Print | Product List | Glossary On
Versions: 1 2 3 4 5 6 7 8 9 10 11 12 13 14 15 16 17 18 19 20 21 22 23 24 25 26 27 28 29 30 31 32 33 34 35 36 37 38 39 40 41 42 43 44 45 46 47 48 49 50
645
ASUS41 KGYX 291510
RWRGYX
WEATHER ROUNDUP FOR MAINE AND NEW HAMPSHIRE
NATIONAL WEATHER SERVICE GRAY ME
1100 AM EDT SUN MAY 29 2016

MEZ002-005-006-010-012-015-018-020-021-024-026-027-029-291600-
MAINE

CITY           SKY/WX    TMP DP  RH WIND       PRES   REMARKS
PORTLAND       CLOUDY    57  48  72 E12       30.29R
SANFORD        CLOUDY    55  48  76 E13       30.27F
BAR HARBOR     CLOUDY    54  44  69 E7        30.32S
WISCASSET      PTSUNNY   63  40  42 E10       30.30S
ROCKLAND       CLOUDY    59  48  67 E9        30.30S
FRYEBURG       CLOUDY    58  54  86 SE8       30.27F
LEWISTONAUBURN CLOUDY   N/A N/A N/A SE6       30.27F
AUGUSTA        CLOUDY    61  48  62 VRB5      30.27F
WATERVILLE     CLOUDY    60  51  72 CALM      30.25F
BANGOR         CLOUDY    61  48  62 SE6       30.30F
GREENVILLE       N/A     50  48  93 VRB5      30.24F
MILLINOCKET    LGT RAIN  52  49  89 VRB6      30.30F
HOULTON        CLOUDY    53  48  83 S6        30.29S
PRESQUE ISLE   LGT RAIN  51  46  83 SE10      30.29F
FRENCHVILLE    CLOUDY    52  46  80 SE12      30.25F
CARIBOU        CLOUDY    52  45  77 S9        30.27F
$$

NHZ002-005-008-009-011-012-014-291600-
NEW HAMPSHIRE

CITY           SKY/WX    TMP DP  RH WIND       PRES   REMARKS
PORTSMOUTH     CLOUDY    55  52  90 NE9       30.24S FOG
ROCHESTER      CLOUDY    56  51  84 NE8       30.25S
NASHUA         CLOUDY    62  56  80 NE7       30.23S
MANCHESTER     CLOUDY    61  54  77 E9        30.22R
CONCORD        CLOUDY    66  56  70 SE8       30.22S
LACONIA        CLOUDY    64  56  75 E13       30.25S
PLYMOUTH       CLOUDY    67  58  73 SE6       30.21F
BERLIN         SUNNY     72  56  57 S12       30.19F
WHITEFIELD     SUNNY     78  62  57 SE7       30.15F
JAFFREY        CLOUDY    64  58  80 VRB3      30.22S
KEENE          CLOUDY    66  61  82 NE7       30.20S
LEBANON        CLOUDY    72  62  71 SE8       30.17F
MT WASHINGTON  PTSUNNY   59  50  72 W22         N/A
$$

VTZ005-007-008-291600-
VERMONT

CITY           SKY/WX    TMP DP  RH WIND       PRES   REMARKS
ST JOHNSBURY     N/A     77  62  59 MISG      30.12F
MONTPELIER     CLOUDY    70  63  78 S10       30.20F
BURLINGTON     PTSUNNY   86  64  47 S12       30.06F
$$

MAZ007-012-024-CTZ003-RIZ002-NYZ038-NYZ072-291600-
SOUTHERN NEW ENGLAND AND NY

CITY           SKY/WX    TMP DP  RH WIND       PRES   REMARKS
BOSTON         CLOUDY    59  54  83 NE12      30.22S
WORCESTER      CLOUDY    61  58  90 NE8       30.21S FOG
NANTUCKET      SUNNY     72  61  68 W12       30.18R
PROVIDENCE     PTSUNNY   74  62  66 NE7       30.19R
HARTFORD       PTSUNNY   81  66  60 VRB5      30.13S
ALBANY         PTSUNNY   84  68  58 S7        30.09F
NEW YORK CITY  PTSUNNY   86  64  47 SW8       30.13S
$$

ANZ081-ANZ082-ANZ150-NHZ014-MEZ023>029-291600-
COASTAL MARINE OBSERVATIONS

STATION/POSITION TIME  TEMP    WIND        PRES    WAVE
                       AIR SEA DIR/SP/G            HT/PER
                 (UTC) (F)     (DEG/KT/KT) (MB)    (FT/S)
MOUNT DESERT ROC 1500   49      30/ 12/ 13 1026.4R
MATINICUS ROCK   1500   50      60/ 16/ 17 1025.3R
ISLE OF SHOALS   1400   53      40/ 17/ 20 1023.5R
JEFFREYS LEDGE   1408      54                N/A     4/ 5
CASHES LEDGE BUO 1450   51 51   80/ 14/ 17 1024.1R   5/ 6
GEORGES BANK BUO 1450   54 52              1023.1F   3/ 8
$$

.............KEY..............
   WCI - WIND CHILL
   TC  - TEMPERATURE IN CELSIUS
   VSB - VISIBILITY IN MILES
   HX  - HEAT INDEX
   FAIR- INDICATES FEW OR NO CLOUDS BELOW 12,000 FT, WITH NO
         SIGNIFICANT WEATHER AND/OR OBSTRUCTIONS TO VISIBILITY.






USA.gov is the U.S. government's official web portal to all federal, state and local government web resources and services.